FW0394 Weather Reports


Display with metric or nautical units.
time (UTC)temp
F
wind
direction
speed
MPH
gust
MPH
rain 1hr
in
rain 24hr
in
rain mn
in
humidity
%
barometer
mb
20260903182503 91 191 6.0 11.0 0.00 0.01 0.01 61 1009.5
20260903182003 91 161 5.0 11.0 0.00 0.01 0.01 60 1009.6
20260903181503 91 133 4.0 12.0 0.00 0.01 0.01 61 1009.6
20260903181004 90 169 4.0 12.0 0.00 0.01 0.01 60 1009.7
20260903180503 90 170 4.0 11.0 0.00 0.01 0.01 64 1009.8
20260903180003 90 162 5.0 11.0 0.00 0.01 0.01 62 1009.8
20260903175503 90 154 5.0 14.0 0.00 0.01 0.01 62 1009.7
20260903175003 90 145 5.0 14.0 0.00 0.01 0.01 64 1009.8
20260903174503 89 159 4.0 9.0 0.00 0.01 0.01 62 1009.8
20260903174005 89 172 4.0 9.0 0.00 0.01 0.01 61 1009.8
20260903173503 89 196 3.0 8.0 0.00 0.01 0.01 62 1009.9
20260903173003 88 184 4.0 11.0 0.00 0.01 0.01 64 1010.1
20260903172504 88 165 5.0 11.0 0.00 0.01 0.01 61 1010.1
20260903172213 88 159 5.0 13.0 0.00 0.01 0.01 62 1010.2
20260903171503 88 168 6.0 13.0 0.00 0.01 0.01 64 1010.0
20260903171003 87 171 6.0 13.0 0.00 0.01 0.01 63 1010.1
20260903170503 87 168 4.0 10.0 0.00 0.01 0.01 63 1010.2
20260903170003 86 167 2.0 10.0 0.00 0.01 0.01 64 1010.3
20260903165712 86 176 2.0 8.0 0.00 0.01 0.01 66 1010.4
20260903165003 85 183 3.0 9.0 0.00 0.01 0.01 66 1010.4
20260903164503 84 177 2.0 7.0 0.00 0.01 0.01 67 1010.4
20260903164004 84 169 2.0 7.0 0.00 0.01 0.01 68 1010.4
20260903163503 84 153 4.0 11.0 0.00 0.01 0.01 68 1010.3
20260903163003 84 154 5.0 13.0 0.00 0.01 0.01 67 1010.1
20260903162503 84 157 4.0 13.0 0.00 0.01 0.01 69 1010.2
20260903162003 84 147 4.0 10.0 0.00 0.01 0.01 70 1010.1
20260903161503 83 152 4.0 10.0 0.00 0.01 0.01 69 1010.3
20260903161003 83 161 3.0 9.0 0.00 0.01 0.01 70 1010.4
20260903160503 84 143 4.0 11.0 0.00 0.01 0.01 70 1010.2
20260903160003 84 135 5.0 11.0 0.00 0.01 0.01 67 1010.2
20260903155504 84 140 5.0 10.0 0.00 0.01 0.01 67 1010.2
20260903155008 84 146 4.0 9.0 0.00 0.01 0.01 67 1010.3
20260903154503 84 148 2.0 9.0 0.00 0.01 0.01 67 1010.4
20260903154213 84 152 2.0 7.0 0.00 0.01 0.01 69 1010.3
20260903153503 84 139 3.0 9.0 0.00 0.01 0.01 69 1010.3
20260903153003 83 143 2.0 7.0 0.00 0.01 0.01 71 1010.4
20260903152503 83 137 0.0 4.0 0.00 0.01 0.01 72 1010.5
20260903152215 82 0 0.0 0.0 0.00 0.01 0.01 72 1010.6
20260903151713 82 136 0.0 2.0 0.00 0.01 0.01 70 1010.6
20260903151003 82 136 0.0 2.0 0.00 0.01 0.01 72 1010.4
20260903150503 82 0 0.0 0.0 0.00 0.01 0.01 70 1010.6
20260903150003 82 136 0.0 1.0 0.00 0.01 0.01 69 1010.5
20260903145503 82 139 1.0 5.0 0.00 0.01 0.01 70 1010.3
20260903145003 82 144 3.0 8.0 0.00 0.01 0.01 69 1010.2
20260903144508 82 144 3.0 8.0 0.00 0.01 0.01 69 1010.1
20260903144004 82 136 3.0 9.0 0.00 0.01 0.01 70 1010.2
20260903143503 82 133 3.0 9.0 0.00 0.01 0.01 69 1010.2
20260903143004 82 131 3.0 8.0 0.00 0.01 0.01 70 1010.2
20260903142503 81 130 3.0 7.0 0.00 0.01 0.01 70 1010.1
20260903142003 81 141 3.0 8.0 0.00 0.01 0.01 70 1010.1
20260903141503 81 138 2.0 8.0 0.00 0.01 0.01 70 1010.1
20260903141214 81 141 2.0 7.0 0.00 0.01 0.01 70 1010.0
20260903140503 81 138 3.0 7.0 0.00 0.01 0.01 69 1010.1
20260903140004 81 141 3.0 8.0 0.00 0.01 0.01 70 1010.1
20260903135503 81 140 3.0 10.0 0.00 0.03 0.01 69 1010.1
20260903135003 81 138 2.0 10.0 0.00 0.03 0.01 71 1010.1
20260903134503 80 142 2.0 4.0 0.00 0.03 0.01 71 1010.0
20260903134003 80 147 2.0 6.0 0.00 0.03 0.01 70 1010.0
20260903133503 80 158 1.0 6.0 0.00 0.03 0.01 70 1010.1
20260903133004 80 191 0.0 3.0 0.00 0.03 0.01 71 1010.2
20260903132503 80 0 0.0 0.0 0.00 0.03 0.01 71 1010.2
20260903132004 80 0 0.0 0.0 0.00 0.03 0.01 70 1010.3
20260903131503 80 0 0.0 0.0 0.00 0.03 0.01 70 1010.3
20260903131003 80 0 0.0 1.0 0.00 0.03 0.01 71 1010.3
20260903130504 80 0 0.0 1.0 0.00 0.03 0.01 71 1010.2
20260903130004 80 0 0.0 0.0 0.00 0.03 0.01 72 1010.2
20260903125503 80 0 0.0 0.0 0.00 0.03 0.01 72 1010.2
20260903125214 80 266 0.0 2.0 0.00 0.03 0.01 71 1010.2
20260903124503 80 266 1.0 2.0 0.00 0.03 0.01 72 1010.3
20260903124003 80 266 1.0 3.0 0.00 0.03 0.01 71 1010.3
20260903123503 80 265 0.0 3.0 0.00 0.03 0.01 70 1010.4
20260903123003 80 265 0.0 1.0 0.00 0.03 0.01 69 1010.3
20260903122503 80 266 0.0 4.0 0.00 0.03 0.01 69 1010.3
20260903122003 80 266 0.0 4.0 0.00 0.03 0.01 68 1010.3
20260903121503 80 224 0.0 4.0 0.00 0.03 0.01 69 1010.2
20260903121003 80 221 1.0 4.0 0.00 0.03 0.01 70 1010.2
20260903120503 80 228 1.0 4.0 0.00 0.03 0.01 69 1010.0
20260903120003 80 232 1.0 5.0 0.00 0.03 0.01 69 1010.0
20260903115504 80 226 2.0 5.0 0.00 0.03 0.01 69 1009.9
20260903115003 80 231 2.0 6.0 0.00 0.03 0.01 69 1009.9
20260903114503 80 239 2.0 7.0 0.00 0.03 0.01 70 1010.0
20260903114213 80 227 2.0 7.0 0.00 0.03 0.01 70 1010.1
20260903113503 80 203 3.0 6.0 0.01 0.03 0.01 69 1009.9
20260903113003 79 193 2.0 6.0 0.01 0.03 0.01 71 1009.9
20260903112503 79 204 2.0 7.0 0.01 0.03 0.01 72 1009.8
20260903112003 78 212 2.0 7.0 0.01 0.03 0.01 73 1009.7
20260903111503 78 197 3.0 10.0 0.01 0.03 0.01 73 1009.7
20260903111213 78 195 4.0 10.0 0.01 0.03 0.01 73 1009.6
20260903110503 78 190 3.0 8.0 0.01 0.03 0.01 75 1009.4
20260903110003 77 182 2.0 7.0 0.01 0.03 0.01 77 1009.5
20260903105504 77 172 2.0 6.0 0.01 0.03 0.01 77 1009.7
20260903105003 78 163 2.0 6.0 0.01 0.03 0.01 76 1009.8
20260903104503 78 158 2.0 6.0 0.01 0.03 0.01 76 1009.8
20260903104003 78 156 1.0 6.0 0.01 0.03 0.01 76 1009.8
20260903103503 78 170 0.0 4.0 0.00 0.03 0.00 76 1009.9
20260903103003 79 0 0.0 0.0 0.00 0.03 0.00 75 1010.0
20260903102504 79 219 0.0 1.0 0.00 0.03 0.00 73 1010.0
20260903102003 79 219 0.0 1.0 0.00 0.03 0.00 74 1009.9
20260903101504 80 220 0.0 4.0 0.00 0.03 0.00 72 1010.0
20260903101003 80 231 1.0 4.0 0.00 0.03 0.00 71 1009.8
20260903100503 80 203 2.0 7.0 0.00 0.03 0.00 70 1009.8
20260903100004 81 184 3.0 9.0 0.00 0.03 0.00 67 1009.8
20260903095503 81 179 3.0 9.0 0.00 0.03 0.00 64 1009.6
20260903095003 81 181 3.0 7.0 0.00 0.03 0.00 64 1009.5
20260903094503 81 178 3.0 10.0 0.00 0.03 0.00 64 1009.5
20260903094003 81 169 3.0 10.0 0.00 0.03 0.00 64 1009.5
20260903093503 81 171 4.0 11.0 0.00 0.03 0.00 64 1009.5
20260903093003 81 172 4.0 11.0 0.00 0.03 0.00 64 1009.6
20260903092503 82 172 3.0 7.0 0.00 0.03 0.00 63 1009.5
20260903092008 82 178 3.0 6.0 0.00 0.03 0.00 63 1009.6
20260903091503 82 180 4.0 11.0 0.00 0.03 0.00 63 1009.6
20260903091003 82 179 5.0 11.0 0.00 0.03 0.00 63 1009.6
20260903090503 82 182 5.0 11.0 0.00 0.03 0.00 62 1009.6
20260903090003 82 189 4.0 12.0 0.00 0.03 0.00 63 1009.6
20260903085503 82 188 5.0 12.0 0.00 0.03 0.00 62 1009.6
20260903085003 82 183 5.0 12.0 0.00 0.03 0.00 62 1009.6
20260903084004 83 188 5.0 15.0 0.00 0.03 0.00 62 1009.6
20260903083713 83 185 5.0 12.0 0.00 0.03 0.00 62 1009.5
20260903083003 83 182 5.0 14.0 0.00 0.03 0.00 61 1009.6
20260903082503 83 187 5.0 16.0 0.00 0.03 0.00 62 1009.6
20260903082214 83 191 5.0 16.0 0.00 0.03 0.00 62 1009.6
20260903081503 83 185 5.0 16.0 0.00 0.03 0.00 61 1009.6
20260903081003 83 183 4.0 16.0 0.00 0.03 0.00 62 1009.5
20260903080503 83 190 4.0 12.0 0.00 0.03 0.00 61 1009.6
20260903080003 83 189 5.0 12.0 0.00 0.03 0.00 61 1009.6
20260903075503 83 184 4.0 9.0 0.00 0.03 0.00 60 1009.6
20260903075003 83 187 5.0 14.0 0.00 0.03 0.00 60 1009.6
20260903074503 84 188 5.0 14.0 0.00 0.03 0.00 60 1009.6
20260903074214 84 183 5.0 14.0 0.00 0.03 0.00 60 1009.6
20260903073503 84 180 4.0 10.0 0.00 0.03 0.00 60 1009.6
20260903073003 84 188 3.0 10.0 0.00 0.03 0.00 60 1009.6
20260903072503 84 187 3.0 9.0 0.00 0.03 0.00 60 1009.6
20260903072003 84 178 4.0 11.0 0.00 0.03 0.00 60 1009.6
20260903071503 84 182 5.0 11.0 0.00 0.03 0.00 60 1009.6
20260903071213 84 187 4.0 11.0 0.00 0.03 0.00 60 1009.6
20260903070503 84 190 5.0 13.0 0.00 0.03 0.00 60 1009.6
20260903070003 84 195 4.0 11.0 0.00 0.03 0.00 60 1009.7
20260903065503 84 192 5.0 11.0 0.00 0.03 0.00 60 1009.7
20260903065003 84 191 5.0 14.0 0.00 0.03 0.00 60 1009.7
20260903064503 84 191 4.0 14.0 0.00 0.03 0.00 60 1009.7
20260903064003 84 184 5.0 14.0 0.00 0.03 0.00 60 1009.7
20260903063504 84 184 6.0 13.0 0.00 0.03 0.00 59 1009.6
20260903063003 84 187 5.0 13.0 0.00 0.03 0.00 59 1009.7
20260903062503 84 182 5.0 13.0 0.00 0.03 0.00 59 1009.6
20260903062003 84 180 5.0 12.0 0.00 0.03 0.00 59 1009.7
20260903061503 84 181 4.0 10.0 0.00 0.03 0.00 60 1009.7
20260903061003 84 176 4.0 9.0 0.00 0.03 0.00 60 1009.7
20260903060503 84 178 4.0 9.0 0.00 0.03 0.00 60 1009.7
20260903060213 84 175 4.0 11.0 0.00 0.03 0.00 61 1009.7
20260903055714 84 177 4.0 11.0 0.00 0.03 0.00 61 1009.8
20260903055003 84 169 4.0 9.0 0.00 0.03 0.00 61 1009.8
20260903054504 84 167 4.0 10.0 0.00 0.03 0.00 61 1009.8
20260903054213 84 165 4.0 11.0 0.00 0.03 0.00 60 1009.8
20260903053504 84 166 4.0 11.0 0.00 0.03 0.00 60 1009.7
20260903053213 84 167 4.0 10.0 0.00 0.03 0.00 60 1009.7
20260903052504 84 172 5.0 11.0 0.00 0.03 0.00 60 1009.7
20260903052003 84 175 5.0 11.0 0.00 0.03 0.00 60 1009.7
20260903051503 84 180 4.0 11.0 0.00 0.03 0.00 60 1009.7
20260903051003 84 173 5.0 12.0 0.00 0.03 0.00 60 1009.7
20260903050503 84 168 6.0 12.0 0.00 0.03 0.00 60 1009.7
20260903050005 84 167 5.0 11.0 0.00 0.03 0.00 60 1009.7
20260903045503 84 170 4.0 13.0 0.00 0.03 0.03 60 1009.8
20260903045213 84 172 5.0 13.0 0.00 0.03 0.03 60 1009.8
20260903044714 84 175 5.0 11.0 0.00 0.03 0.03 60 1009.8
20260903044004 84 180 5.0 11.0 0.00 0.03 0.03 60 1009.9
20260903043504 84 182 5.0 15.0 0.00 0.03 0.03 60 1009.8
20260903043003 84 178 5.0 12.0 0.00 0.03 0.03 59 1009.8
20260903042503 84 175 5.0 12.0 0.00 0.03 0.03 60 1009.7
20260903042004 84 173 5.0 10.0 0.00 0.03 0.03 60 1009.7
20260903041714 84 177 5.0 11.0 0.00 0.03 0.03 59 1009.8
20260903041003 85 184 6.0 12.0 0.00 0.03 0.03 59 1009.8
20260903040713 85 182 5.0 12.0 0.00 0.03 0.03 59 1009.7
20260903040003 85 173 5.0 11.0 0.00 0.03 0.03 59 1009.7
20260903035504 85 171 6.0 13.0 0.00 0.03 0.03 59 1009.7
20260903035003 85 171 6.0 13.0 0.00 0.03 0.03 59 1009.7
20260903034504 85 174 6.0 13.0 0.00 0.03 0.03 58 1009.7
20260903034003 85 168 5.0 15.0 0.00 0.03 0.03 58 1009.6
20260903033503 85 172 5.0 15.0 0.00 0.03 0.03 58 1009.8
20260903033214 85 170 5.0 13.0 0.00 0.03 0.03 58 1009.7
20260903032503 85 157 5.0 11.0 0.00 0.03 0.03 58 1009.8
20260903032003 85 162 4.0 10.0 0.00 0.03 0.03 58 1009.7
20260903031503 85 171 4.0 11.0 0.00 0.03 0.03 58 1009.7
20260903031214 85 167 4.0 11.0 0.00 0.03 0.03 58 1009.6
20260903030713 85 159 5.0 11.0 0.00 0.03 0.03 58 1009.7
20260903030004 85 159 5.0 9.0 0.00 0.03 0.03 58 1009.7
20260903025503 86 154 4.0 9.0 0.00 0.03 0.03 58 1009.7
20260903025004 86 151 4.0 10.0 0.00 0.03 0.03 58 1009.7
20260903024503 86 148 5.0 10.0 0.00 0.03 0.03 58 1009.7
20260903024003 86 144 4.0 9.0 0.00 0.03 0.03 57 1009.6
20260903023504 86 152 4.0 10.0 0.00 0.03 0.03 57 1009.6
20260903023003 87 155 4.0 10.0 0.00 0.03 0.03 57 1009.5
20260903022503 87 152 4.0 9.0 0.00 0.03 0.03 56 1009.4
20260903022003 87 155 4.0 8.0 0.00 0.03 0.03 56 1009.4
20260903021503 87 162 4.0 8.0 0.00 0.03 0.03 56 1009.5
20260903021003 87 160 4.0 8.0 0.00 0.03 0.03 56 1009.4
20260903020503 88 159 4.0 10.0 0.00 0.03 0.03 56 1009.3
20260903020003 88 156 4.0 10.0 0.00 0.03 0.03 56 1009.2
20260903015713 88 154 4.0 10.0 0.00 0.03 0.03 56 1009.0
20260903015214 88 158 4.0 11.0 0.00 0.03 0.03 56 1009.0
20260903014713 88 159 4.0 11.0 0.00 0.03 0.03 56 1009.0
20260903014004 88 153 4.0 9.0 0.00 0.03 0.03 57 1009.0
20260903013503 88 151 4.0 8.0 0.00 0.03 0.03 57 1008.9
20260903013003 88 154 4.0 8.0 0.00 0.03 0.03 57 1009.0
20260903012503 88 161 3.0 10.0 0.00 0.03 0.03 57 1008.9
20260903012003 89 161 3.0 10.0 0.00 0.03 0.03 57 1008.8
20260903011003 89 152 3.0 7.0 0.00 0.03 0.03 57 1008.8
20260903010503 90 143 2.0 6.0 0.00 0.03 0.03 56 1008.8
20260903010004 90 149 3.0 6.0 0.00 0.03 0.03 56 1008.9
20260903005503 90 157 3.0 6.0 0.00 0.03 0.03 55 1008.9
20260903005213 91 161 3.0 6.0 0.00 0.03 0.03 55 1008.9
20260903004504 91 156 3.0 10.0 0.00 0.03 0.03 54 1008.9
20260903004213 91 156 3.0 10.0 0.00 0.03 0.03 54 1009.0
20260903003504 92 161 3.0 6.0 0.00 0.03 0.03 53 1009.0
20260903003003 92 158 3.0 7.0 0.00 0.03 0.03 53 1009.0
20260903002714 92 160 4.0 7.0 0.00 0.03 0.03 52 1009.0
20260903002003 93 158 3.0 6.0 0.00 0.03 0.03 52 1008.9
20260903001503 93 167 4.0 12.0 0.00 0.03 0.03 51 1009.0
20260903001003 94 171 4.0 12.0 0.00 0.03 0.03 50 1009.0
20260903000503 94 169 5.0 10.0 0.00 0.03 0.03 49 1008.9
20260903000003 94 164 4.0 11.0 0.00 0.03 0.03 49 1008.9
20260902235503 94 163 4.0 11.0 0.00 0.03 0.03 50 1008.9
20260902235003 94 164 4.0 11.0 0.00 0.03 0.03 49 1009.0
20260902234503 95 164 4.0 8.0 0.00 0.03 0.03 49 1009.0
20260902234003 95 178 3.0 7.0 0.00 0.03 0.03 49 1009.0
20260902233503 95 188 3.0 8.0 0.00 0.03 0.03 49 1009.0
20260902233004 95 180 4.0 10.0 0.00 0.03 0.03 49 1009.1
20260902232503 95 185 4.0 10.0 0.00 0.03 0.03 48 1009.1
20260902232003 95 192 4.0 11.0 0.00 0.03 0.03 48 1009.0
20260902231503 96 187 4.0 11.0 0.00 0.03 0.03 47 1009.0
20260902231003 96 188 3.0 10.0 0.00 0.03 0.03 49 1009.1
20260902230503 96 194 4.0 10.0 0.00 0.03 0.03 48 1009.1
20260902230214 96 195 5.0 12.0 0.00 0.03 0.03 47 1009.1
20260902225503 96 203 5.0 15.0 0.00 0.03 0.03 47 1009.1
20260902225003 96 206 4.0 13.0 0.00 0.03 0.03 47 1009.1
20260902224503 96 213 5.0 13.0 0.00 0.03 0.03 47 1009.1
20260902224003 96 210 6.0 17.0 0.00 0.03 0.03 47 1009.2
20260902223503 96 215 7.0 17.0 0.00 0.03 0.03 45 1009.2
20260902223003 97 204 7.0 15.0 0.00 0.03 0.03 46 1009.2
20260902222503 97 184 7.0 15.0 0.00 0.03 0.03 46 1009.3
20260902222004 97 186 6.0 14.0 0.00 0.03 0.03 46 1009.3
20260902221713 97 187 6.0 15.0 0.00 0.03 0.03 47 1009.3
20260902221003 97 194 7.0 18.0 0.00 0.03 0.03 46 1009.3
20260902220503 97 209 6.0 16.0 0.00 0.03 0.03 46 1009.3
20260902220003 97 197 7.0 19.0 0.00 0.03 0.03 47 1009.4
20260902215503 97 202 6.0 19.0 0.00 0.03 0.03 47 1009.3
20260902215003 97 221 5.0 15.0 0.00 0.03 0.03 46 1009.4
20260902214503 98 203 5.0 15.0 0.00 0.03 0.03 47 1009.4
20260902214003 97 201 6.0 14.0 0.00 0.03 0.03 46 1009.3
20260902213713 98 210 6.0 13.0 0.00 0.03 0.03 45 1009.4
20260902213214 98 209 6.0 16.0 0.00 0.03 0.03 46 1009.4
20260902212503 98 203 6.0 16.0 0.00 0.03 0.03 46 1009.4
20260902212003 98 206 5.0 14.0 0.00 0.03 0.03 48 1009.5
20260902211504 98 209 5.0 14.0 0.00 0.03 0.03 47 1009.5
20260902211003 97 213 5.0 13.0 0.00 0.03 0.03 50 1009.6
20260902210503 97 207 5.0 16.0 0.00 0.03 0.03 47 1009.6
20260902210003 97 208 6.0 16.0 0.00 0.03 0.03 47 1009.7
20260902205713 97 204 6.0 16.0 0.00 0.03 0.03 47 1009.6
20260902205003 97 208 7.0 14.0 0.00 0.03 0.03 46 1009.7
20260902204503 97 209 6.0 12.0 0.00 0.03 0.03 47 1009.7
20260902204003 97 215 6.0 16.0 0.00 0.03 0.03 47 1009.7
20260902203713 97 216 6.0 16.0 0.00 0.03 0.03 47 1009.7
20260902203003 97 201 6.0 14.0 0.00 0.03 0.03 48 1009.8
20260902202504 96 196 6.0 14.0 0.00 0.03 0.03 49 1009.8
20260902202003 96 194 6.0 14.0 0.00 0.03 0.03 49 1009.9
20260902201503 95 202 6.0 14.0 0.00 0.03 0.03 49 1010.0
20260902201004 95 218 6.0 14.0 0.00 0.03 0.03 49 1010.0
20260902200503 96 213 5.0 13.0 0.00 0.03 0.03 49 1010.0
20260902200003 95 202 5.0 15.0 0.00 0.03 0.03 49 1010.0
20260902195503 95 203 6.0 15.0 0.00 0.03 0.03 48 1010.0
20260902195003 94 210 7.0 16.0 0.00 0.03 0.03 50 1010.1
20260902194503 94 202 6.0 16.0 0.00 0.03 0.03 50 1010.1
20260902194213 93 191 5.0 12.0 0.00 0.03 0.03 52 1010.0
20260902193503 92 202 4.0 9.0 0.00 0.03 0.03 50 1010.3
20260902193003 93 221 4.0 9.0 0.00 0.03 0.03 51 1010.3
20260902192714 93 209 5.0 12.0 0.00 0.03 0.03 53 1010.4
20260902192004 92 203 6.0 18.0 0.00 0.03 0.03 50 1010.4
20260902191503 92 209 6.0 12.0 0.00 0.03 0.03 52 1010.4
20260902191213 92 204 6.0 12.0 0.00 0.03 0.03 52 1010.4
20260902190503 91 200 4.0 11.0 0.00 0.03 0.03 52 1010.3
20260902190004 91 205 4.0 11.0 0.00 0.03 0.03 53 1010.4
20260902185503 91 212 5.0 16.0 0.00 0.03 0.03 52 1010.5
20260902185004 91 199 6.0 16.0 0.00 0.03 0.03 54 1010.6
20260902184503 91 191 5.0 14.0 0.00 0.03 0.03 53 1010.7
20260902184213 90 191 5.0 14.0 0.00 0.03 0.03 54 1010.8
20260902183503 90 188 4.0 15.0 0.00 0.03 0.03 54 1010.8
20260902183003 90 185 6.0 15.0 0.00 0.03 0.03 55 1010.9